NOAA 16 DEB, 41343

Orbit data source: Space-Track

NOAA 16 DEB, 41343 is space debris in SSO originally from a launch on Thu, 21 Sep 2000 UTC launched from the Air Force Western Test Range (AFWTR). Debris objects in space refer to the collection of defunct objects orbiting the Earth. Examples of debris include non-operational satellites, rocket bodies, and fragments generated from explosions, collisions, or faulty payload assembly.

Loading next visibility...
NOAA 16 DEB details
Identifier
41343, 2000-055HL
Orbit
SSO
Last TLE update1 day ago
Origin
Flag of USNOAA (US)
ManufacturerUnknown
MissionSpacecraft
Bus & MotorUnknown
MassUnknown
Launch date (UTC)
2000-09-21 (24 years ago)
Launch vehicleUnknown
Launch site
Air Force Western Test Range (AFWTR)
Object type
Payload
Rocket body
Debris
Shape & HBRUnknown
Radar Cross SectionSmall (<0.1 m²)

Expand to show TLE details & history

TLE from 1 day ago
0 NOAA 16 DEB
1 41343U 00055HL  24348.09924609  .00006163  00000-0  24707-2 0  9993
2 41343  98.6283  38.6236 0023076  69.2373 291.1278 14.28456240459531
Epoch: 2024-12-13T02:22Z
Definitive object data (Epoch: 2024-12-13T02:22:54.862Z)
Latitude-0.00001°
Longitude-79.37508°
Altitude793.888 km
Speed7.46 km/s
True Right ascension02h 34m 29s
True Declination0° 00' 00"
Sunlit
Object was in full shadow at TLE epoch
Visualization TLE readout
Latitude-80.78731°
Longitude-9.75138°
Altitude839.709 km
Speed7.424 km/s
Apparent Right ascension14h 34m 05s
Apparent Declination-68° 37' 05"
Sunlit
Object is in daylight
Visualization observer readout
Local Sidereal Time03:25:22
Azimuth170.55° S
Elevation-60.477°
Doppler factor1
Orbital elements
Apogee altitude810.59 km
Perigee altitude777.489 km
Semi-major axis7,172.176 km
Eccentricity0.0023076
Inclination98.6283°
RAAN38.6236°
Arg. of periapsis69.2373°
True anomaly290.88089°
Mean anomaly291.1278°
Eccentric anomaly291.00437°
Mean motion3.57328 °/min
BSTAR0.0024707
Orbital period100.75 mins
Loading maneuver chart data...
Loading historical data...
Loading historical data...
Loading historical data...
Loading historical data...
Loading historical data...
Loading historical data...
Loading historical data...

NOAA 16 DEB Visibility forecast

Observer location: undefined°, undefined

Span
Click to sort rows by Start time (UTC) header in descending order
Start Az.
Max El. time (UTC)
Max El. Az.
Max El.
End time (UTC)
End Az.
9 mins2024-12-14 15:56:25.186Z27.836° NE2024-12-14 16:01:25.186Z105.127° ESE34.242°2024-12-14 16:05:25.186Z167.047° S
6 mins2024-12-14 17:38:25.186Z327.867° NNW2024-12-14 17:40:25.186Z297.235° NW21.321°2024-12-14 17:44:25.186Z245.298° WSW
8 mins2024-12-15 03:16:25.186Z146.606° SSE2024-12-15 03:19:25.186Z78.312° E41.492°2024-12-15 03:24:25.186Z353.828° N
|